STARLINK-30052, 57611

Orbit data source: Space-Track

STARLINK-30052, 57611 is a payload satellite owned by SpaceX/Seattle (US) in LEO that was launched on Fri, 11 Aug 2023 UTC via an FALCON 9 launch vehicle from the Air Force Eastern Test Range (AFETR). Payload-class satellites include a variety of spacecraft equipped with specific instruments for various scientific and technological missions. These include communications satellites like Starlink; space stations such as the ISS; scientific satellites like the Hubble; Earth observation satellites from companies like Planet Labs, Umbra, and HawkEye 360; GPS; miniature CubeSats for education and research; and military/defense satellites.

Loading next visibility...
Identifier
57611, 2023-119K
Orbit
LEO
Country
Flag of USUS
Related business
Manufacturer
SpaceX/Seattle
Mission
Operational Commercial Communications
Bus & Motor
STARLINK V2M, Unknown motor
Mass
730 kg wet, ~700 kg dry
Launch date (UTC)
2023-08-11 (3 years ago)
Launch vehicle
FALCON 9
Launch site
Air Force Eastern Test Range (AFETR)
Object type
Payload
Rocket body
Debris
Shape & HBR
Box + 2 Pan, 17.7 m
Radar Cross Section
33.884 m², Large (>1 m²)

Expand to show TLE details & history
Last TLE update: 2 days ago

TLE from 2 days ago
0 STARLINK-30052
1 57611U 23119K   26171.44070221  .00000119  00000-0  13849-4 0  9993
2 57611  43.0003 221.0529 0001355 280.4493  79.6206 15.27576064158789
Epoch: 2026-06-20T10:34Z
TLE epoch observation values (Epoch: 2026-06-20T10:34:36.670Z)
Latitude
-0.00003°
Longitude
153.74478°
Altitude
482.669 km
Speed
7.626 km/s
True Right ascension
14h 44m 12s
True Declination
0° 00' 00"
Sunlit
Object was in full shadow at epoch
Visualization orbit readout
Latitude
Unknown
Longitude
Unknown
Altitude
Unknown
Speed
Unknown
Apparent Right ascension
Unknown
Apparent Declination
Unknown
Sunlit
N/A
Visualization observer readout
Local Sidereal Time
23:20:28
Azimuth
Unknown
Elevation
Unknown
Doppler factor
Unknown
Orbital elements
Apogee altitude
485.936 km
Perigee altitude
484.076 km
Semi-major axis
6,863.143 km
Eccentricity
0.00014
Inclination
43.0003°
RAAN
221.0529°
Arg. of periapsis
280.4493°
True anomaly
79.63587°
Mean anomaly
79.6206°
Eccentric anomaly
79.62824°
Mean motion
3.81732 °/min
Orbital period
94.31 mins
BSTAR
0.000013849
Loading maneuver chart data...
Computing Atmospheric mass density...
Loading historical data...
Loading historical data...
Loading historical data...
Loading historical data...
Loading historical data...
Loading historical data...
Loading historical data...

Documentation

Showing up to 5 results
|